Location: Unspecified
(52.0000°N, 4.4000°E)
Time: 01:25:45
(UTC+00:00)

Okean 1 - Pass Details

Date: 14 May 2025
Orbit: 478 x 498 km, 82.5° (Epoch: 23 June)

Event Time Altitude Azimuth Distance (km) Brightness Sun altitude
Exits shadow 22:06:39 37° 148° (SSE) 791 3.6 -16.3°
Maximum altitude 22:07:46 52° 96° (E) 623 3.4 -16.4°
Drops below altitude 10° 22:11:22 10° 19° (NNE) 1,693 6.5 -16.6°
Sets 22:13:31 0° 15° (NNE) 2,576 7.7 -16.7°
